Weather History for Mobridge, SD

Change the Weather History Date:

Friday, February 15, 2013

  Actual Average Record
Temperature  
Mean Temperature 20 °F 20 °F  
Max Temperature 25 °F 31 °F 58 °F (1934)
Min Temperature 15 °F 10 °F -36 °F (1936)
Degree Days  
Heating Degree Days 45 45  
Month to date heating degree days 588 693  
Since 1 July heating degree days 5273 5426  
Cooling Degree Days 0 0  
Month to date cooling degree days 0 0  
Year to date cooling degree days 0 0  
Moisture  
Dew Point 15 °F    
Average Humidity 75    
Maximum Humidity 88    
Minimum Humidity 62    
Precipitation  
Precipitation 0.03 in 0.01 in 0.22 in (1987)
Month to date precipitation 0.27 0.21  
Year to date precipitation 0.87 0.50  
Snow  
Snow 0.00 in - - ()
Month to date snowfall 3.4  
Since 1 July snowfall 23.2  
Snow Depth -    
Sea Level Pressure  
Sea Level Pressure 30.30 in    
Wind  
Wind Speed 8 mph (North)    
Max Wind Speed 18 mph    
Max Gust Speed 24 mph    
Visibility 8 miles    
Events Fog , Snow    
T = Trace of Precipitation, MM = Missing Value Source: NWS Daily Summary

Daily Weather History Graph

Daily Weather History Graph

Search for Another Location

Airport:

Trip Planner

Search our weather history database for the weather conditions in past years. The results will help you decide how hot, cold, wet, or windy it might be!

Date:

Astronomy

Feb. 15, 2013 Rise Set
Actual Time 7:42 AM CST 6:09 PM CST
Civil Twilight 7:12 AM CST 6:39 PM CST
Nautical Twilight 6:37 AM CST 7:14 PM CST
Astronomical Twilight 6:03 AM CST 7:48 PM CST
Moon 10:00 AM CST (2/15) No Moon Set
Length of Visible Light 11h 27m
Length of Day
10h 26m
Waxing Crescent, 30% of the Moon is Illuminated
Feb 15
Waxing Crescent
Feb 17
First Quarter
Feb 25
Full
Mar 4
Last Quarter
Mar 11
New

Hourly Weather History & Observations

Time (CST) Temp. Windchill Dew Point Humidity Pressure Visibility Wind Dir Wind Speed Gust Speed Precip Events Conditions
12:52 AM 21.9 °F 17.2 °F 17.1 °F 82% 30.31 in 10.0 mi NW 3.5 mph - 0.00 in Snow Light Snow
1:11 AM 23.0 °F 17.0 °F 17.6 °F 80% 30.22 in 1.8 mi NW 4.6 mph - 0.00 in Snow Light Snow
1:20 AM 23.0 °F 17.0 °F 17.6 °F 80% 30.22 in 3.0 mi NW 4.6 mph - 0.00 in Snow Light Snow
1:36 AM 23.0 °F - 19.4 °F 86% 30.22 in 9.0 mi Calm Calm - 0.00 in   Overcast
1:52 AM 24.1 °F - 19.0 °F 81% 30.30 in 10.0 mi Calm Calm - 0.00 in   Overcast
2:52 AM 24.1 °F - 19.0 °F 81% 30.30 in 9.0 mi Calm Calm - 0.00 in   Overcast
3:37 AM 24.8 °F 17.9 °F 19.4 °F 80% 30.21 in 9.0 mi NW 5.8 mph - 0.00 in   Overcast
3:52 AM 24.1 °F 15.2 °F 19.9 °F 84% 30.28 in 10.0 mi NNW 8.1 mph - 0.00 in   Overcast
4:32 AM 23.0 °F 11.7 °F 15.8 °F 74% 30.21 in 10.0 mi North 11.5 mph - N/A   Overcast
4:52 AM 21.9 °F 11.0 °F 14.0 °F 72% 30.30 in 10.0 mi NNW 10.4 mph - N/A   Overcast
5:52 AM 21.0 °F 9.9 °F 14.0 °F 74% 30.31 in 10.0 mi NNW 10.4 mph - N/A   Overcast
6:52 AM 19.9 °F 7.9 °F 12.9 °F 74% 30.33 in 10.0 mi NNW 11.5 mph - N/A   Overcast
7:52 AM 19.9 °F 12.1 °F 14.0 °F 78% 30.34 in 10.0 mi NNW 5.8 mph - N/A   Overcast
8:22 AM 19.4 °F 9.5 °F 15.8 °F 86% 30.26 in 2.5 mi NNW 8.1 mph - 0.00 in Snow Light Snow
8:28 AM 19.4 °F 9.5 °F 15.8 °F 86% 30.26 in 0.8 mi NNW 8.1 mph - 0.00 in Snow Light Snow
8:50 AM 19.4 °F 11.5 °F 15.8 °F 86% 30.27 in 0.8 mi North 5.8 mph - 0.01 in Snow Light Snow
8:52 AM 19.9 °F 11.1 °F 16.0 °F 85% 30.35 in 0.5 mi North 6.9 mph - 0.01 in Fog , Snow Snow
9:05 AM 19.4 °F 11.5 °F 17.6 °F 93% 30.27 in 1.0 mi North 5.8 mph - 0.01 in Snow Light Snow
9:52 AM 21.0 °F 10.6 °F 17.1 °F 85% 30.37 in 1.8 mi NNW 9.2 mph - 0.02 in Snow Light Snow
10:08 AM 21.2 °F 9.5 °F 17.6 °F 86% 30.29 in 2.0 mi North 11.5 mph - 0.00 in Snow Light Snow
10:21 AM 21.2 °F 8.9 °F 17.6 °F 86% 30.29 in 1.8 mi NNW 12.7 mph 18.4 mph 0.00 in Snow Light Snow
10:33 AM 21.2 °F 8.3 °F 15.8 °F 80% 30.29 in 3.0 mi North 13.8 mph - 0.00 in Snow Light Snow
10:52 AM 21.0 °F 8.6 °F 16.0 °F 81% 30.39 in 7.0 mi North 12.7 mph - 0.00 in   Overcast
11:52 AM 21.9 °F 8.2 °F 15.1 °F 75% 30.40 in 9.0 mi North 16.1 mph 24.2 mph 0.00 in Snow Light Snow
12:32 PM 21.2 °F 7.8 °F 14.0 °F 74% 30.32 in 10.0 mi North 15.0 mph 21.9 mph 0.00 in   Overcast
12:50 PM 23.0 °F 10.6 °F 15.8 °F 74% 30.32 in 10.0 mi North 13.8 mph - 0.00 in   Mostly Cloudy
12:52 PM 21.9 °F 9.2 °F 14.0 °F 72% 30.40 in 10.0 mi North 13.8 mph - 0.00 in   Mostly Cloudy
1:02 PM 23.0 °F 10.1 °F 14.0 °F 68% 30.31 in 10.0 mi North 15.0 mph - N/A   Mostly Cloudy
1:52 PM 23.0 °F 10.6 °F 12.9 °F 65% 30.39 in 10.0 mi North 13.8 mph - N/A   Partly Cloudy
2:52 PM 24.1 °F 16.0 °F 14.0 °F 65% 30.38 in 10.0 mi North 6.9 mph - N/A   Scattered Clouds
3:52 PM 25.0 °F 17.1 °F 14.0 °F 63% 30.38 in 10.0 mi North 6.9 mph - N/A   Clear
4:52 PM 24.1 °F 18.2 °F 14.0 °F 65% 30.37 in 10.0 mi East 4.6 mph - N/A   Clear
5:52 PM 19.9 °F 13.4 °F 12.9 °F 74% 30.36 in 10.0 mi SE 4.6 mph - N/A   Clear
6:52 PM 16.0 °F 7.4 °F 12.0 °F 84% 30.35 in 10.0 mi SE 5.8 mph - N/A   Clear
7:52 PM 15.1 °F 7.7 °F 10.9 °F 84% 30.32 in 10.0 mi SE 4.6 mph - N/A   Clear
8:52 PM 17.1 °F 7.6 °F 12.0 °F 81% 30.29 in 10.0 mi SSE 6.9 mph - N/A   Clear
9:52 PM 17.1 °F 6.6 °F 12.0 °F 81% 30.26 in 10.0 mi SSE 8.1 mph - N/A   Clear
10:52 PM 17.1 °F 5.8 °F 12.0 °F 81% 30.23 in 10.0 mi SE 9.2 mph - N/A   Partly Cloudy
11:52 PM 18.0 °F 6.1 °F 14.0 °F 84% 30.20 in 10.0 mi SSE 10.4 mph - N/A   Overcast